Location: Bellerive
(46.9237°N, 7.0223°E)
Time: 13:57:30
(UTC+00:00)

Cosmos 1300 - Pass Details

Date: 09 April 2020
Orbit: 511 x 515 km, 82.5° (Epoch: 02 June)

Event Time Altitude Azimuth Distance (km) Brightness Sun altitude
Exits shadow 18:43:37 - 137° (SE) 2,220 5.4 -5.9°
Reaches altitude 10° 18:45:17 10° 121° (ESE) 1,739 4.7 -6.2°
Maximum altitude 18:47:29 15° 86° (E) 1,455 4.4 -6.5°
Drops below altitude 10° 18:49:43 10° 50° (NE) 1,749 5.1 -6.9°
Sets 18:52:34 0° 27° (NNE) 2,643 6.2 -7.4°
